CAPE
0 0 0 0 0 0 0 0 0 0 0 0 0 0 0 0 0 0 0 0 0 0 0 0 0 1 16 0 0 0 7 0 26 30 5 22 80 55 96 114 191 21 53 179
0 0 0 0 0 0 0 0 0 0 0 0 0 0 0 0 0 0 0 0 0 0 0 0 0 0 0 0 0 0 3 0 0 9 4 50 12 2 19 78 123 244 324 340
0 0 0 0 0 0 0 0 0 0 0 0 0 0 0 0 0 1 0 0 0 0 0 0 0 0 0 0 0 11 0 0 0 0 0 3 5 27 47 61 150 99 164 202
0 0 0 0 0 0 0 0 0 10 0 0 0 0 0 0 2 0 0 0 0 0 2 15 2 0 0 0 0 0 0 0 0 0 0 0 0 31 1 62 192 130 69 80
0 0 0 0 0 0 0 0 0 5 0 6 0 0 0 0 3 5 0 3 0 0 6 24 18 10 11 0 19 0 1 3 0 0 2 0 2 13 7 17 75 98 193 117
0 0 0 0 0 1 0 0 1 0 0 0 14 0 0 0 1 14 23 16 17 21 11 19 8 1 1 7 1 1 26 39 79 90 56 40 57 37 40 105 64 115 162 384
0 0 0 0 0 1 11 0 0 0 0 2 38 29 2 0 3 9 42 55 33 27 10 8 0 2 4 0 0 0 1 49 49 29 39 80 79 1 29 70 68 7 29 278
0 0 0 0 0 0 8 16 0 0 0 0 1 24 132 43 28 33 46 54 48 57 16 1 12 16 6 0 0 0 1 7 37 135 194 156 79 108 146 415 215 69 99 132
0 0 0 0 0 0 0 6 9 0 0 0 0 0 44 98 128 90 66 21 1 39 38 25 1 5 37 26 24 0 0 9 4 59 110 56 167 0 8 53 442 427 354 286
0 0 0 0 0 0 0 0 0 7 3 0 0 0 15 86 145 56 65 0 0 30 43 13 44 56 22 2 13 153 91 27 51 115 116 231 275 336 392 382 640 811 632 474
0 0 0 0 0 0 0 26 0 7 1 5 0 7 1 69 115 101 21 6 5 11 32 32 45 94 54 6 17 65 109 127 194 230 237 296 346 353 217 905 764 586 1813 1883
0 0 0 0 0 0 0 8 32 0 1 7 0 1 4 11 88 47 60 9 52 3 13 57 35 66 47 76 96 114 101 239 282 267 302 600 571 325 642 646 974 1340 1932 1774
0 0 0 0 0 0 0 15 11 3 0 0 0 1 1 0 0 13 36 44 143 39 222 64 92 46 94 123 105 214 160 200 51 266 440 366 460 566 455 851 1450 1934 1918 1628
2 1 0 0 0 0 0 1 1 13 0 5 36 4 0 2 8 0 23 2 5 53 138 119 85 49 67 98 179 119 152 211 93 81 26 311 591 842 1166 1471 1509 1600 1701 1272
7 1 0 0 0 0 0 68 17 4 0 1 2 0 0 4 5 1 6 0 0 82 117 73 103 74 149 55 81 63 247 81 73 106 112 957 878 1162 1413 1539 1351 1222 1230 1120
2 0 6 2 0 0 0 0 1 0 0 0 15 11 0 0 0 4 9 0 0 36 158 73 100 84 8 89 77 79 96 42 2 205 95 711 718 1059 1411 1391 1312 1063 1168 936
2 0 0 3 0 0 0 18 0 0 0 0 28 29 5 2 5 0 26 69 54 72 53 56 116 149 0 25 65 58 63 54 131 11 207 496 290 392 602 1100 1158 1174 1078 943
0 4 4 2 0 0 0 1 0 0 0 2 29 82 90 13 3 46 170 162 118 93 19 12 101 197 17 28 31 2 3 60 148 10 58 282 320 432 482 818 986 1249 1173 942
0 2 0 0 0 0 1 0 3 3 5 31 39 71 113 113 98 133 198 214 178 138 174 216 138 253 120 11 19 2 0 19 152 49 10 229 270 378 349 311 658 1201 1097 962
0 0 29 4 18 0 0 2 1 0 6 13 2 62 165 120 175 172 221 213 220 144 174 258 82 204 256 160 72 92 28 1 41 127 51 151 247 399 364 322 374 413 847 1100
0 4 12 4 0 18 89 115 89 108 49 34 16 26 51 58 258 190 161 307 232 203 242 230 212 231 348 162 129 178 109 24 90 213 132 127 232 400 405 246 302 567 622 1130
2 6 17 88 123 150 94 94 104 95 41 69 50 53 53 48 186 484 286 217 167 227 210 179 344 160 228 127 122 92 117 70 99 206 111 125 122 211 361 238 340 471 661 840
6 16 29 150 193 134 90 75 120 115 96 84 38 103 101 108 138 247 137 75 220 296 204 128 128 139 152 253 154 66 92 84 98 101 94 208 171 116 169 269 381 455 756 999
4 5 215 92 75 107 148 114 88 70 107 158 87 82 114 101 116 126 9 123 165 136 133 96 80 572 300 170 94 92 117 155 185 100 142 272 322 209 146 287 425 554 880 910
2 4 5 3 82 106 102 100 127 129 135 248 189 165 141 157 85 81 109 49 17 69 65 79 209 341 388 443 438 301 242 197 196 199 269 263 468 359 327 363 486 631 777 786
0 0 31 127 128 108 90 114 87 91 322 103 136 122 60 66 50 59 21 26 66 94 99 334 466 623 680 785 674 454 352 266 252 267 362 395 527 529 630 613 651 788 870 857
0 53 38 52 130 150 136 177 154 439 187 55 84 29 58 56 53 37 39 41 57 40 101 326 904 901 1148 966 932 966 614 507 457 674 1064 718 669 669 758 868 929 880 1058 1333
CIN
-0 -0 -0 -0 -0 -0 -0 -0 -0 -0 -0 -0 -0 -0 -0 -0 -0 -0 -0 -0 -0 -0 -0 -0 -0 -0 -0 -0 -0 -0 -0 -0 -0 -0 -3 -0 -0 -3 -25 -0 -2 -49 -22 -45
-0 -0 -0 -0 -0 -0 -0 -0 -0 -0 -0 -0 -0 -0 -0 -0 -0 -0 -0 -0 -0 -0 -0 -0 -0 -0 -0 -0 -0 -0 -0 -0 -0 -0 -0 -0 -0 -0 -0 -4 -20 -0 -0 -8
-0 -0 -0 -0 -0 -0 -0 -0 -0 -0 -0 -0 -0 -0 -0 -0 -0 -0 -0 -0 -0 -0 -0 -0 -0 -0 -0 -0 -0 -45 -0 -0 -0 -0 -0 -5 -1 -0 -58 -109 -0 -2 -0 -5
-0 -0 -0 -0 -0 -0 -0 -0 -0 -12 -0 -0 -0 -0 -0 -0 -0 -0 -0 -0 -0 -0 -0 -0 -0 -0 -0 -0 -0 -0 -0 -0 -0 -0 -0 -0 -0 -14 -116 -21 -48 -0 -1 -21
-0 -0 -0 -0 -0 -0 -0 -0 -0 -8 -0 -0 -0 -0 -0 -0 -0 -0 -0 -0 -0 -0 -0 -0 -0 -1 -0 -0 -0 -0 -0 -0 -0 -0 -0 -0 -0 -1 -22 -32 -1 -49 -1 -0
-0 -0 -0 -0 -0 -4 -0 -0 -0 -0 -0 -0 -0 -0 -0 -0 -0 -0 -0 -0 -0 -0 -0 -0 -0 -0 -0 -0 -0 -0 -0 -0 -0 -0 -0 -0 -0 -0 -23 -5 -0 -91 -20 -13
-0 -0 -0 -0 -0 -14 -8 -0 -0 -0 -0 -5 -0 -0 -0 -0 -0 -0 -0 -0 -0 -0 -2 -2 -0 -0 -0 -0 -0 -0 -0 -0 -0 -0 -0 -0 -0 -60 -139 -25 -2 -16 -12 -0
-0 -0 -0 -0 -0 -0 -10 -1 -0 -0 -0 -0 -0 -1 -18 -0 -1 -1 -0 -0 -0 -2 -0 -0 -0 -0 -0 -0 -0 -0 -0 -0 -0 -0 -0 -3 -1 -8 -14 -4 -0 -12 -0 -0
-0 -0 -0 -0 -0 -0 -0 -4 -12 -0 -0 -0 -0 -0 -0 -3 -0 -0 -0 -7 -6 -1 -0 -0 -0 -0 -2 -0 -0 -0 -0 -0 -0 -0 -0 -27 -0 -1 -15 -81 -0 -0 -0 -1
-0 -0 -0 -0 -0 -0 -0 -0 -0 -10 -2 -0 -0 -0 -19 -7 -0 -2 -0 -0 -0 -1 -0 -0 -0 -0 -0 -1 -0 -0 -0 -0 -0 -0 -0 -7 -0 -30 -0 -0 -2 -26 -0 -0
-0 -0 -0 -0 -0 -0 -0 -0 -0 -8 -16 -9 -9 -47 -15 -12 -14 -14 -1 -17 -6 -16 -1 -0 -1 -0 -0 -0 -0 -0 -0 -0 -0 -0 -0 -0 -4 -3 -0 -2 -0 -57 -20 -27
-0 -0 -0 -0 -0 -0 -0 -0 -0 -0 -3 -20 -0 -17 -201 -151 -36 -28 -27 -21 -15 -10 -0 -0 -1 -0 -0 -0 -0 -0 -0 -0 -20 -0 -0 -10 -1 -5 -0 -11 -0 -0 -5 -22
-0 -0 -0 -0 -0 -0 -0 -0 -0 -0 -0 -0 -0 -8 -12 -43 -96 -34 -8 -44 -19 -0 -19 -0 -0 -0 -0 -0 -0 -13 -0 -3 -3 -0 -12 -0 -0 -0 -4 -6 -0 -0 -0 -0
-0 -0 -0 -0 -0 -0 -0 -0 -0 -0 -0 -0 -2 -74 -0 -48 -120 -14 -10 -26 -63 -50 -18 -0 -0 -0 -0 -0 -0 -1 -97 -1 -0 -1 -5 -1 -0 -0 -0 -0 -3 -0 -0 -0
-2 -0 -0 -0 -0 -0 -0 -0 -0 -0 -0 -0 -0 -1 -0 -118 -118 -110 -12 -0 -0 -42 -3 -0 -0 -2 -0 -0 -0 -0 -0 -1 -0 -0 -6 -12 -2 -0 -0 -0 -0 -0 -0 -0
-0 -0 -0 -1 -0 -0 -0 -0 -0 -0 -0 -0 -0 -0 -0 -0 -0 -100 -106 -0 -0 -22 -5 -0 -0 -8 -2 -0 -0 -0 -0 -0 -0 -0 -5 -2 -0 -0 -0 -0 -0 -3 -0 -0
-0 -0 -0 -0 -0 -0 -0 -0 -0 -0 -0 -0 -0 -0 -9 -23 -26 -0 -30 -41 -26 -42 -12 -0 -0 -0 -0 -0 -0 -2 -2 -3 -1 -18 -0 -0 -0 -0 -0 -0 -0 -3 -0 -0
-0 -3 -3 -0 -0 -0 -0 -0 -0 -0 -0 -0 -0 -0 -0 -26 -31 -2 -0 -3 -16 -24 -15 -16 -6 -0 -0 -0 -1 -2 -1 -14 -1 -28 -2 -0 -0 -0 -0 -0 -0 -2 -3 -3
-0 -0 -0 -0 -0 -0 -0 -0 -0 -0 -0 -0 -0 -1 -1 -6 -0 -0 -0 -0 -7 -1 -2 -0 -0 -5 -0 -0 -5 -0 -0 -17 -0 -23 -50 -0 -0 -0 -0 -0 -0 -0 -6 -5
-0 -0 -0 -0 -0 -0 -0 -0 -0 -0 -0 -0 -2 -0 -0 -0 -0 -0 -0 -0 -0 -3 -0 -0 -8 -0 -0 -2 -3 -15 -32 -1 -31 -6 -19 -0 -0 -0 -0 -0 -0 -0 -0 -0
-0 -0 -0 -2 -0 -0 -0 -0 -0 -0 -0 -2 -5 -0 -0 -0 -2 -1 -7 -4 -2 -0 -0 -0 -0 -0 -0 -0 -13 -20 -18 -42 -16 -1 -3 -12 -0 -0 -0 -0 -0 -1 -0 -0
-0 -0 -0 -0 -0 -0 -0 -1 -0 -0 -0 -0 -0 -0 -0 -0 -0 -3 -14 -1 -0 -0 -0 -0 -0 -0 -0 -4 -23 -21 -13 -21 -15 -4 -13 -16 -20 -3 -0 -0 -0 -0 -0 -0
-4 -0 -0 -0 -0 -0 -0 -0 -0 -0 -0 -0 -1 -0 -0 -0 -0 -3 -5 -1 -1 -0 -0 -0 -1 -0 -0 -3 -33 -35 -3 -12 -27 -27 -33 -0 -3 -24 -10 -0 -0 -0 -0 -0
-0 -0 -0 -0 -0 -0 -0 -0 -0 -0 -0 -2 -0 -0 -0 -0 -0 -2 -0 -1 -2 -0 -0 -0 -0 -3 -6 -4 -0 -0 -0 -4 -15 -29 -23 -0 -0 -2 -11 -0 -0 -0 -0 -0
-2 -0 -0 -0 -0 -1 -0 -0 -0 -0 -0 -1 -0 -1 -0 -0 -0 -0 -0 -0 -0 -0 -0 -0 -1 -0 -0 -0 -0 -0 -0 -0 -2 -7 -0 -0 -0 -1 -0 -0 -0 -0 -0 -0
-0 -0 -0 -0 -0 -0 -0 -0 -0 -0 -2 -8 -1 -1 -0 -0 -0 -0 -0 -0 -0 -0 -0 -0 -0 -9 -3 -2 -1 -5 -4 -1 -6 -0 -0 -0 -0 -0 -0 -1 -0 -0 -0 -0
-0 -0 -0 -0 -0 -0 -0 -0 -0 -3 -1 -0 -1 -0 -0 -1 -0 -0 -0 -0 -0 -1 -0 -1 -7 -5 -7 -15 -18 -15 -18 -12 -6 -0 -0 -0 -1 -1 -0 -0 -0 -0 -0 -0
Wind_Speed
nan nan nan nan nan nan nan nan nan nan nan nan nan nan nan nan nan nan nan nan nan nan nan nan nan nan nan nan nan nan nan nan nan nan nan nan nan nan nan 16 18 nan nan 27
nan nan nan nan nan nan nan nan nan nan nan nan nan nan nan nan nan nan nan nan nan nan nan nan nan nan nan nan nan nan nan nan nan nan nan nan nan nan nan nan 21 20 22 31
nan nan nan nan nan nan nan nan nan nan nan nan nan nan nan nan nan nan nan nan nan nan nan nan nan nan nan nan nan nan nan nan nan nan nan nan nan nan nan nan 15 nan 14 24
nan nan nan nan nan nan nan nan nan nan nan nan nan nan nan nan nan nan nan nan nan nan nan nan nan nan nan nan nan nan nan nan nan nan nan nan nan nan nan nan 38 20 nan nan
nan nan nan nan nan nan nan nan nan nan nan nan nan nan nan nan nan nan nan nan nan nan nan nan nan nan nan nan nan nan nan nan nan nan nan nan nan nan nan nan nan nan 27 19
nan nan nan nan nan nan nan nan nan nan nan nan nan nan nan nan nan nan nan nan nan nan nan nan nan nan nan nan nan nan nan nan nan nan nan nan nan nan nan 20 nan 23 30 35
nan nan nan nan nan nan nan nan nan nan nan nan nan nan nan nan nan nan nan nan nan nan nan nan nan nan nan nan nan nan nan nan nan nan nan nan nan nan nan nan nan nan nan 36
nan nan nan nan nan nan nan nan nan nan nan nan nan nan 40 nan nan nan nan nan nan nan nan nan nan nan nan nan nan nan nan nan nan 4 4 21 nan 19 26 29 21 nan nan 16
nan nan nan nan nan nan nan nan nan nan nan nan nan nan nan nan 30 nan nan nan nan nan nan nan nan nan nan nan nan nan nan nan nan nan 11 nan 13 nan nan nan 14 27 30 25
nan nan nan nan nan nan nan nan nan nan nan nan nan nan nan nan 35 nan nan nan nan nan nan nan nan nan nan nan nan 19 nan nan nan 7 10 3 24 28 13 6 19 28 24 26
nan nan nan nan nan nan nan nan nan nan nan nan nan nan nan nan 39 41 nan nan nan nan nan nan nan nan nan nan nan nan 9 7 5 10 15 8 18 13 8 20 14 10 40 39
nan nan nan nan nan nan nan nan nan nan nan nan nan nan nan nan nan nan nan nan nan nan nan nan nan nan nan nan nan 19 10 14 4 13 11 10 11 10 12 17 17 20 20 22
nan nan nan nan nan nan nan nan nan nan nan nan nan nan nan nan nan nan nan nan 48 nan 39 nan nan nan nan 5 13 14 11 11 nan 9 17 12 13 13 11 9 15 20 14 15
nan nan nan nan nan nan nan nan nan nan nan nan nan nan nan nan nan nan nan nan nan nan 26 23 nan nan nan nan 28 16 19 5 nan nan nan 12 15 13 15 14 13 11 17 17
nan nan nan nan nan nan nan nan nan nan nan nan nan nan nan nan nan nan nan nan nan nan 21 nan 8 nan 19 nan nan nan 14 nan nan 11 9 20 12 16 15 14 12 20 20 20
nan nan nan nan nan nan nan nan nan nan nan nan nan nan nan nan nan nan nan nan nan nan 30 nan 20 nan nan nan nan nan nan nan nan 9 nan 15 17 13 16 13 12 11 16 18
nan nan nan nan nan nan nan nan nan nan nan nan nan nan nan nan nan nan nan nan nan nan nan nan 22 22 nan nan nan nan nan nan 10 nan 10 8 12 11 11 11 10 11 14 14
nan nan nan nan nan nan nan nan nan nan nan nan nan nan nan nan nan nan 28 24 19 nan nan nan 27 19 nan nan nan nan nan nan 10 nan nan 10 9 13 9 12 16 17 11 8
nan nan nan nan nan nan nan nan nan nan nan nan nan nan 20 17 nan 26 26 25 26 25 25 17 23 27 19 nan nan nan nan nan 9 nan nan 11 15 13 10 11 10 16 18 6
nan nan nan nan nan nan nan nan nan nan nan nan nan nan 22 18 17 20 21 25 27 33 21 30 nan 14 23 12 nan nan nan nan nan 6 nan 7 12 15 11 10 9 7 11 17
nan nan nan nan nan nan nan 15 nan 12 nan nan nan nan nan nan 23 26 33 27 28 28 27 26 25 16 11 16 20 21 21 nan nan 11 10 6 6 13 12 10 12 11 13 17
nan nan nan nan 9 11 nan nan 9 nan nan nan nan nan nan nan 22 32 33 32 31 25 24 24 17 23 19 16 15 nan 19 nan nan 11 12 11 6 6 12 11 15 15 16 15
nan nan nan 6 7 14 nan nan 8 10 nan nan nan 13 15 22 23 24 27 nan 26 29 24 25 24 24 22 20 20 nan nan nan nan 14 nan 14 14 11 10 10 15 19 19 19
nan nan 6 nan nan 10 10 16 nan nan 15 15 nan nan 12 17 22 25 nan 37 29 24 26 nan nan 28 30 31 nan nan 22 22 21 17 16 15 18 16 14 13 15 20 21 20
nan nan nan nan nan 15 11 12 11 10 12 14 11 13 17 15 nan nan 18 nan nan nan nan nan 29 25 29 32 33 31 25 28 26 25 20 18 19 21 18 16 17 21 20 19
nan nan nan 12 13 10 nan 7 nan nan 15 17 13 14 nan nan nan nan nan nan nan nan nan 27 24 34 30 23 22 26 32 29 27 26 24 24 25 24 23 22 21 22 22 22
nan nan nan nan 11 13 8 11 10 13 10 nan nan nan nan nan nan nan nan nan nan nan 25 30 33 34 31 26 22 20 24 28 31 32 32 29 28 27 28 25 26 26 25 24
Wind_Direction
nan nan nan nan nan nan nan nan nan nan nan nan nan nan nan nan nan nan nan nan nan nan nan nan nan nan nan nan nan nan nan nan nan nan nan nan nan nan nan 196 284 nan nan 249
nan nan nan nan nan nan nan nan nan nan nan nan nan nan nan nan nan nan nan nan nan nan nan nan nan nan nan nan nan nan nan nan nan nan nan nan nan nan nan nan 205 210 216 260
nan nan nan nan nan nan nan nan nan nan nan nan nan nan nan nan nan nan nan nan nan nan nan nan nan nan nan nan nan nan nan nan nan nan nan nan nan nan nan nan 224 nan 263 257
nan nan nan nan nan nan nan nan nan nan nan nan nan nan nan nan nan nan nan nan nan nan nan nan nan nan nan nan nan nan nan nan nan nan nan nan nan nan nan nan 133 197 nan nan
nan nan nan nan nan nan nan nan nan nan nan nan nan nan nan nan nan nan nan nan nan nan nan nan nan nan nan nan nan nan nan nan nan nan nan nan nan nan nan nan nan nan 197 288
nan nan nan nan nan nan nan nan nan nan nan nan nan nan nan nan nan nan nan nan nan nan nan nan nan nan nan nan nan nan nan nan nan nan nan nan nan nan nan 237 nan 232 216 212
nan nan nan nan nan nan nan nan nan nan nan nan nan nan nan nan nan nan nan nan nan nan nan nan nan nan nan nan nan nan nan nan nan nan nan nan nan nan nan nan nan nan nan 237
nan nan nan nan nan nan nan nan nan nan nan nan nan nan 206 nan nan nan nan nan nan nan nan nan nan nan nan nan nan nan nan nan nan 218 349 232 nan 283 197 193 205 nan nan 234
nan nan nan nan nan nan nan nan nan nan nan nan nan nan nan nan 214 nan nan nan nan nan nan nan nan nan nan nan nan nan nan nan nan nan 250 nan 332 nan nan nan 235 204 223 241
nan nan nan nan nan nan nan nan nan nan nan nan nan nan nan nan 189 nan nan nan nan nan nan nan nan nan nan nan nan 284 nan nan nan 339 296 268 274 329 343 207 197 179 213 216
nan nan nan nan nan nan nan nan nan nan nan nan nan nan nan nan 194 193 nan nan nan nan nan nan nan nan nan nan nan nan 263 282 285 253 252 286 241 263 233 221 189 52 226 237
nan nan nan nan nan nan nan nan nan nan nan nan nan nan nan nan nan nan nan nan nan nan nan nan nan nan nan nan nan 266 279 230 267 248 270 275 284 249 234 197 190 204 242 232
nan nan nan nan nan nan nan nan nan nan nan nan nan nan nan nan nan nan nan nan 204 nan 208 nan nan nan nan 284 290 278 291 262 nan 242 250 278 271 273 256 197 194 230 250 276
nan nan nan nan nan nan nan nan nan nan nan nan nan nan nan nan nan nan nan nan nan nan 195 199 nan nan nan nan 237 230 235 205 nan nan nan 280 277 271 259 242 240 269 262 266
nan nan nan nan nan nan nan nan nan nan nan nan nan nan nan nan nan nan nan nan nan nan 204 nan 215 nan 245 nan nan nan 274 nan nan 256 249 287 311 271 267 249 240 252 262 263
nan nan nan nan nan nan nan nan nan nan nan nan nan nan nan nan nan nan nan nan nan nan 204 nan 211 nan nan nan nan nan nan nan nan 233 nan 263 266 279 283 289 275 272 282 279
nan nan nan nan nan nan nan nan nan nan nan nan nan nan nan nan nan nan nan nan nan nan nan nan 180 230 nan nan nan nan nan nan 247 nan 273 295 297 295 283 298 294 291 289 289
nan nan nan nan nan nan nan nan nan nan nan nan nan nan nan nan nan nan 226 242 231 nan nan nan 208 215 nan nan nan nan nan nan 253 nan nan 312 302 283 288 297 319 302 296 289
nan nan nan nan nan nan nan nan nan nan nan nan nan nan 204 227 nan 221 222 225 232 234 241 251 232 211 217 nan nan nan nan nan 243 nan nan 290 306 308 307 313 342 328 311 328
nan nan nan nan nan nan nan nan nan nan nan nan nan nan 211 218 220 212 210 213 220 225 225 247 nan 220 199 239 nan nan nan nan nan 263 nan 271 301 307 323 324 324 340 339 337
nan nan nan nan nan nan nan 230 nan 264 nan nan nan nan nan nan 211 193 210 205 221 222 229 248 228 211 228 184 204 217 214 nan nan 195 234 250 291 307 317 318 300 295 322 312
nan nan nan nan 239 213 nan nan 242 nan nan nan nan nan nan nan 201 210 203 210 215 223 235 230 214 216 239 217 209 nan 217 nan nan 208 226 243 248 290 302 304 300 297 299 310
nan nan nan 219 219 202 nan nan 249 230 nan nan nan 221 208 215 205 204 212 nan 226 217 242 249 229 227 228 232 235 nan nan nan nan 219 nan 233 250 251 284 301 298 297 292 299
nan nan 189 nan nan 156 170 192 nan nan 231 208 nan nan 220 214 210 218 nan 209 214 228 228 nan nan 247 246 239 nan nan 220 222 244 234 234 233 253 255 265 288 298 299 297 304
nan nan nan nan nan 175 197 201 197 227 227 198 183 195 212 223 nan nan 219 nan nan nan nan nan 231 250 252 247 244 239 228 222 233 241 235 240 248 257 264 276 286 296 303 303
nan nan nan 159 157 154 nan 174 nan nan 194 193 182 186 nan nan nan nan nan nan nan nan nan 232 256 231 236 241 240 229 223 224 231 240 243 246 255 257 263 271 278 288 300 303
nan nan nan nan 172 174 192 199 182 197 197 nan nan nan nan nan nan nan nan nan nan nan 230 220 244 232 235 226 227 229 228 223 227 232 241 249 254 259 262 271 280 288 290 292